Estación Meteorológica de la Universidad de Murcia
Estación Meteorológica de la Universidad de Murcia
Universidad de Murcia
 

Velocidad y dirección del vientoVelocidad y dirección del viento

 

Velocidad: 30,24 km/h a las 18:00:00 del día 20/08/2017
Dirección del viento: 156,8 º SE Rosa de los vientos a las 18:00:00 del día 20/08/2017

Nota:
N (entre 337,6º y 22,5º), NE (entre 22,6º y 67,5º), E (entre 67,6º y 112,5º), SE (entre 112,6º y 157,5º), S (entre 157,6º y 202,5º), SW (entre 202,6º y 247,5º), W (entre 247,5º y 292,5º) y NW (entre 292,6º y 337,5º)

||Velocidad últimos meses|| ----||Dirección del viento||


Velocidad

  • 1 - 30,24 km/h del día 20/08/2017
  • 2 - 35,28 km/h del día 19/08/2017
  • 3 - 28,44 km/h del día 18/08/2017
  • 4 - 30,24 km/h del día 17/08/2017
  • 5 - 23,76 km/h del día 16/08/2017
  • 6 - 33,12 km/h del día 15/08/2017
  • 7 - 35,28 km/h del día 14/08/2017
  • 8 - 37,44 km/h del día 13/08/2017
  • 9 - 32,04 km/h del día 12/08/2017
  • 10 - 32,04 km/h del día 11/08/2017
  • 11 - 37,44 km/h del día 10/08/2017
  • 12 - 43,56 km/h del día 09/08/2017
  • 13 - 43,56 km/h del día 08/08/2017
  • 14 - 38,52 km/h del día 07/08/2017
  • 15 - 34,56 km/h del día 06/08/2017
  • 16 - 28,08 km/h del día 05/08/2017
  • 17 - 31,68 km/h del día 04/08/2017
  • 18 - 31,32 km/h del día 03/08/2017
  • 19 - 37,08 km/h del día 02/08/2017
  • 20 - 32,76 km/h del día 01/08/2017
  • 21 - 34,2 km/h del día 31/07/2017
  • 22 - 31,32 km/h del día 30/07/2017
  • 23 - 31,68 km/h del día 29/07/2017
  • 24 - 32,04 km/h del día 28/07/2017
  • 25 - 28,08 km/h del día 27/07/2017
  • 26 - 31,32 km/h del día 26/07/2017
  • 27 - 35,64 km/h del día 25/07/2017
  • 28 - 38,16 km/h del día 24/07/2017
  • 29 - 26,64 km/h del día 23/07/2017
  • 30 - 29,52 km/h del día 22/07/2017
  • 31 - 30,24 km/h del día 21/07/2017
  • 32 - 35,28 km/h del día 20/07/2017
  • 33 - 34,56 km/h del día 19/07/2017
  • 34 - 33,12 km/h del día 18/07/2017
  • 35 - 35,64 km/h del día 17/07/2017
  • 36 - 30,6 km/h del día 16/07/2017
  • 37 - 33,12 km/h del día 15/07/2017
  • 38 - 32,76 km/h del día 14/07/2017
  • 39 - 31,32 km/h del día 13/07/2017
  • 40 - 25,56 km/h del día 12/07/2017
  • 41 - 26,64 km/h del día 11/07/2017
  • 42 - 31,68 km/h del día 10/07/2017
  • 43 - 42,48 km/h del día 09/07/2017
  • 44 - 30,96 km/h del día 08/07/2017
  • 45 - 38,16 km/h del día 07/07/2017
  • 46 - 38,52 km/h del día 06/07/2017
  • 47 - 35,64 km/h del día 05/07/2017
  • 48 - 39,96 km/h del día 04/07/2017
  • 49 - 33,48 km/h del día 03/07/2017
  • 50 - 31,32 km/h del día 02/07/2017
  • 51 - 44,64 km/h del día 01/07/2017
  • 52 - 37,08 km/h del día 30/06/2017
  • 53 - 36,36 km/h del día 29/06/2017
  • 54 - 45 km/h del día 28/06/2017
  • 55 - 35,28 km/h del día 27/06/2017
  • 56 - 28,44 km/h del día 26/06/2017
  • 57 - 36,72 km/h del día 25/06/2017
  • 58 - 34,92 km/h del día 24/06/2017
  • 59 - 29,52 km/h del día 23/06/2017
  • 60 - 30,96 km/h del día 22/06/2017

||Volver al inicio de la página||


Dirección del viento

  • 1 - 1260.69 º 1260,69 del día 31/07/2017
  • 2 - 1466.39 º 1466,39 del día 30/07/2017
  • 3 - 2150.25 º 2150,25 del día 30/06/2017
  • 4 - 1240.32 º 1240,32 del día 29/07/2017
  • 5 - 1916.04 º 1916,04 del día 29/06/2017
  • 6 - 1318.83 º 1318,83 del día 28/07/2017
  • 7 - 2549.49 º 2549,49 del día 28/06/2017
  • 8 - 1252.15 º 1252,15 del día 27/07/2017
  • 9 - 1673.72 º 1673,72 del día 27/06/2017
  • 10 - 1407.03 º 1407,03 del día 26/07/2017
  • 11 - 1872.95 º 1872,95 del día 26/06/2017
  • 12 - 1349.93 º 1349,93 del día 25/07/2017
  • 13 - 977.41 º N del día 25/06/2017
  • 14 - 1322.36 º 1322,36 del día 24/07/2017
  • 15 - 1426.24 º 1426,24 del día 24/06/2017
  • 16 - 1144.48 º 1144,48 del día 23/07/2017
  • 17 - 1327.61 º 1327,61 del día 23/06/2017
  • 18 - 1175.89 º 1175,89 del día 22/07/2017
  • 19 - 1596.63 º 1596,63 del día 22/06/2017
  • 20 - 1587.53 º 1587,53 del día 21/08/2017
  • 21 - 1109.67 º 1109,67 del día 21/07/2017
  • 22 - 931.95 º N del día 21/06/2017
  • 23 - 1124.63 º 1124,63 del día 20/08/2017
  • 24 - 1520.59 º 1520,59 del día 20/07/2017
  • 25 - 896.63 º N del día 19/08/2017
  • 26 - 1354.1 º 1354,1 del día 19/07/2017
  • 27 - 1485.02 º 1485,02 del día 18/08/2017
  • 28 - 1260.24 º 1260,24 del día 18/07/2017
  • 29 - 1377 º 1377 del día 17/08/2017
  • 30 - 1387.82 º 1387,82 del día 17/07/2017
  • 31 - 1464.02 º 1464,02 del día 16/08/2017
  • 32 - 1365.69 º 1365,69 del día 16/07/2017
  • 33 - 1480.92 º 1480,92 del día 15/08/2017
  • 34 - 1140.89 º 1140,89 del día 15/07/2017
  • 35 - 1229.9 º 1229,9 del día 14/08/2017
  • 36 - 906.93 º N del día 14/07/2017
  • 37 - 1511.2 º 1511,2 del día 13/08/2017
  • 38 - 896.65 º N del día 13/07/2017
  • 39 - 1423.79 º 1423,79 del día 12/08/2017
  • 40 - 1145.21 º 1145,21 del día 12/07/2017
  • 41 - 1210.45 º 1210,45 del día 11/08/2017
  • 42 - 1383.68 º 1383,68 del día 11/07/2017
  • 43 - 1251.52 º 1251,52 del día 10/08/2017
  • 44 - 1204.23 º 1204,23 del día 10/07/2017
  • 45 - 1242.54 º 1242,54 del día 09/08/2017
  • 46 - 1953.51 º 1953,51 del día 09/07/2017
  • 47 - 1321.7 º 1321,7 del día 08/08/2017
  • 48 - 2098.66 º 2098,66 del día 08/07/2017
  • 49 - 1017.9 º 1017,9 del día 07/08/2017
  • 50 - 1404.73 º 1404,73 del día 07/07/2017
  • 51 - 933.11 º N del día 06/08/2017
  • 52 - 1474.56 º 1474,56 del día 06/07/2017
  • 53 - 1048.14 º 1048,14 del día 05/08/2017
  • 54 - 1528.22 º 1528,22 del día 05/07/2017
  • 55 - 1328.02 º 1328,02 del día 04/08/2017
  • 56 - 1576.89 º 1576,89 del día 04/07/2017
  • 57 - 1813.43 º 1813,43 del día 03/08/2017
  • 58 - 1257.53 º 1257,53 del día 03/07/2017
  • 59 - 1379.29 º 1379,29 del día 02/08/2017
  • 60 - 1409.63 º 1409,63 del día 02/07/2017
  • 61 - 1187.42 º 1187,42 del día 01/08/2017
  • 62 - 1567.27 º 1567,27 del día 01/07/2017

|| Temperatura Ambiente|| Humedad relativa|| Precipitación|| Radiación Solar Global y PAR|| Temperatura y humedad del suelo|| Presión atmosférica|| Más información|| Volver a la página principal|| Volver al inicio de la página||


Estación Meteorológica de la Universidad de Murcia
http://estacion.um.es/
Informacion actualizada a: 21/08/2017 a las 17:42:00